THOR ABLESTAR DEB, 136

Orbit data source: Space-Track

THOR ABLESTAR DEB, 136 is space debris in LEO originally from a launch on Thu, 29 Jun 1961 UTC launched from the Air Force Eastern Test Range (AFETR). Debris objects in space refer to the collection of defunct objects orbiting the Earth. Examples of debris include non-operational satellites, rocket bodies, and fragments generated from explosions, collisions, or faulty payload assembly.

Loading next visibility...
Identifier
136, 1961-015W
Orbit
LEO
Country
Flag of USUS
Related business
Manufacturer
Unknown
Mission
Spacecraft
Bus & Motor
Unknown
Mass
Unknown
Launch date (UTC)
1961-06-29 (64 years ago)
Launch vehicle
Unknown
Launch site
Air Force Eastern Test Range (AFETR)
Object type
Payload
Rocket body
Debris
Shape & HBR
Unknown
Radar Cross Section
Small (<0.1 m²)

Expand to show TLE details & history
Last TLE update: 14 hours ago

TLE from 14 hours ago
0 THOR ABLESTAR DEB
1 00136U 61015W   25258.32175196  .00001970  00000-0  62819-3 0  9995
2 00136  67.5269 268.7732 0052767 282.7505  76.7710 14.40887405317143
Epoch: 2025-09-15T07:43Z
TLE epoch observation values (Epoch: 2025-09-15T07:43:19.369Z)
Latitude
-0.0001°
Longitude
158.41438°
Altitude
749.323 km
Speed
7.485 km/s
True Right ascension
17h 55m 05s
True Declination
0° 00' 00"
Sunlit
Object was in daylight at epoch
Visualization orbit readout
Latitude
Unknown
Longitude
Unknown
Altitude
Unknown
Speed
Unknown
Apparent Right ascension
Unknown
Apparent Declination
Unknown
Sunlit
N/A
Visualization observer readout
Local Sidereal Time
14:41:39
Azimuth
Unknown
Elevation
Unknown
Doppler factor
Unknown
Orbital elements
Apogee altitude
791.472 km
Perigee altitude
716.206 km
Semi-major axis
7,131.976 km
Eccentricity
0.00528
Inclination
67.5269°
RAAN
268.7732°
Arg. of periapsis
282.7505°
True anomaly
77.3605°
Mean anomaly
76.771°
Eccentric anomaly
77.06566°
Mean motion
3.60353 °/min
Orbital period
99.9 mins
BSTAR
0.00062819
Loading maneuver chart data...
Computing Atmospheric mass density...

Documentation

Showing up to 5 results
|